📊 Raw Sensor Data

Showing records 48676 to 48700 of 85,105 total

ID Distance (ft) Battery V Battery A Int Temp (°F) Int Humid (%) Ext Temp (°F) Solar V RSSI SNR Time Stamp
36442 -- 4.03 -5 51 40 53 0.00 -77 8 03/31/2025 12:45 AM
36441 -- 3.96 -5 51 41 52 0.00 -76 8 03/31/2025 12:30 AM
36440 -- 3.96 -5 51 41 52 0.10 -77 8 03/31/2025 12:15 AM
36439 -- 4.03 -5 52 40 53 0.10 -77 7 03/31/2025 12:01 AM
36438 15.1 3.96 -5 52 41 53 0.00 -77 8 03/30/2025 11:45 PM
36437 15.0 3.96 -5 52 41 53 0.00 -79 8 03/30/2025 11:30 PM
36436 15.1 4.03 -5 52 41 53 0.10 -77 8 03/30/2025 11:15 PM
36435 15.0 3.97 -5 52 41 53 0.00 -78 6 03/30/2025 11:00 PM
36434 15.0 4.03 -26 53 41 54 0.00 -77 8 03/30/2025 10:45 PM
36433 15.1 3.97 -5 53 41 54 0.00 -77 8 03/30/2025 10:15 PM
36432 -- 3.97 -5 54 41 55 0.00 -78 7 03/30/2025 10:00 PM
36431 -- 3.97 -5 54 41 55 0.00 -77 8 03/30/2025 09:45 PM
36430 -- 4.04 -5 54 41 55 0.00 -83 7 03/30/2025 09:30 PM
36429 15.1 3.97 -5 54 42 55 0.00 -80 8 03/30/2025 09:15 PM
36428 -- 3.97 -5 55 42 56 0.00 -81 8 03/30/2025 09:00 PM
36427 15.1 4.04 -5 55 42 56 0.00 -79 8 03/30/2025 08:45 PM
36426 -- 3.98 -5 56 43 56 0.00 -80 8 03/30/2025 08:30 PM
36425 -- 3.98 -5 56 43 57 0.00 -80 7 03/30/2025 08:15 PM
36424 15.1 3.98 -5 57 43 57 0.00 -84 8 03/30/2025 08:00 PM
36423 -- 3.98 -5 58 44 58 0.50 -81 7 03/30/2025 07:45 PM
36422 -- 3.97 -9 60 44 59 3.30 -81 8 03/30/2025 07:30 PM
36421 -- 3.99 0 62 43 60 4.50 -80 7 03/30/2025 07:16 PM
36420 -- 4.09 0 64 42 61 4.50 -80 8 03/30/2025 07:00 PM
36419 -- 4.05 17 65 41 63 4.50 -77 8 03/30/2025 06:45 PM
36418 -- 4.09 -5 65 42 63 4.50 -80 7 03/30/2025 06:30 PM